Location: Tierz
(42.1336°N, 0.3549°W)
Time: 23:55:02
(UTC+00:00)

Aureole 3 - Pass Details

Date: 29 October 2020
Orbit: 382 x 1231 km, 82.5° (Epoch: 05 December)

Event Time Altitude Azimuth Distance (km) Brightness Sun altitude
Rises 17:29:42 0° 172° (S) 2,415 6.7 -6.4°
Reaches altitude 10° 17:31:53 10° 164° (SSE) 1,482 5.5 -6.8°
Maximum altitude 17:34:49 38° 94° (E) 615 3.1 -7.3°
Drops below altitude 10° 17:37:37 10° 24° (NNE) 1,413 5.1 -7.8°
Sets 17:39:39 0° 16° (NNE) 2,283 6.2 -8.2°
